Location: Berg
(48.4333°N, 13.9167°E)
Time: 04:57:43
(UTC+00:00)

SL-14 R/B - Pass Details

Date: 18 September 2020
Orbit: 519 x 554 km, 82.4° (Epoch: 22 October)

Event Time Altitude Azimuth Distance (km) Brightness Sun altitude
Rises 19:11:07 0° 357° (N) 2,672 7.2 -20.1°
Reaches altitude 10° 19:13:24 10° 6° (N) 1,782 6.2 -20.5°
Enters shadow 19:16:03 30° 42° (NE) 966 4.4 -20.9°
